FLOCK 2P-4 (41611 NORAD) Tracking and Keplerian Element Data

This shows tracking and keplerian element data for the satellite.

Feedback or suggestion? Click here.




ElementValue
Catalog41611
NameFLOCK 2P-4
Epoch Orbit21342
Epoch Day114.83182169
Epoch Year2020
RAAN180.5132
Inclination97.3307
Eccentricity0.0009985
Argument of Perigee23.9349
Mean Anonmoly336.2353
Mean Motion15.27570667
Decay Rate3.039E-05
L11 41611U 16040N 20114.83182169 .00003039 00000-0 11530-3 0 9998
L22 41611 97.3307 180.5132 0009985 23.9349 336.2353 15.27570667213428



Live tracking and technical data element details for FLOCK 2P-4 (NORAD 41611). FLOCK 2P-4 can be tracked NOW for your location showing map with azimuth and elevation plus other details from your city location.







IsCatalogInMostPopularTable: catalog: 41611, numindb: 481
Update: records affected: 1



GetName: 41611 FLOCK 2P-4

Hit Count: updated at: Fri, 16 May 2025 10:58:32 GMT